{"data":{"norad_id":69703,"epoch":"2026-07-25T13:34:33.381696Z","epoch_age_seconds":4946161,"freshness":"OLD","line1":"1 69703U 26146C   26206.56566414  .00004359  00000+0  31491-3 0  9998","line2":"2 69703  41.9885 315.5098 0008162  99.8926 260.2822 15.05011291  4341","mean_motion":15.05011291,"eccentricity":0.0008162,"inclination_deg":41.9885,"raan_deg":315.5098,"arg_perigee_deg":99.8926,"mean_anomaly_deg":260.2822,"bstar":0.00031491,"rev_number":434,"period_min":95.680345297821,"perigee_km":545.81507734884,"apogee_km":557.12696948626,"semimajor_km":6929.6080234175,"source":"CELESTRAK","updated_at":"2026-07-26T09:00:30.503012Z"}}